Погода в Садовом

Россия / Калининградская область     54°43′04″N   22°26′40″E
темп.,
°C
ветер,
м/с
пор.,
м/с
влажн.,
%
обл.,
%
осадки,
мм/ч
давл.,
гПа
погр.,
м
17 мая, вт
вт1723:00+4ссз37720 0.0 1021136
02:00+2ссз36810 0.0 1021111
05:00+1сз37830 0.0 1021129
08:00+8ссз59560 0.0 1021750
11:00+11ссз7104173 0.0 10212361
14:00+12с7943100 0.0 10202290
17:00+12с6105181 0.4 10202599
20:00+8с510592 0.6 1022395
18 мая, ср
ср1823:00+3ссз39785 0.0 1024177
02:00+1ссз36910 0.0 1026116
05:00+1ссз35930 0.0 102798
08:00+7сз34685 0.0 1029469
11:00+11сз44545 0.0 10291047
14:00+14зсз45495 0.0 10281219
17:00+13зсз56530 0.0 1027965
20:00+7зсз367523 0.0 1027108
19 мая, чт
чт1923:00+4зюз227578 0.0 102726
02:00+4юз3580100 0.0 102676
05:00+5юз398117 0.0 1025161
08:00+12зюз586283 0.0 1025333
11:00+16зюз5751100 0.0 1024705
14:00+18зюз575298 0.0 1022853
17:00+19зюз4762100 0.0 1021931
20:00+16юз3775100 0.0 1019172
20 мая, пт
пт2023:00+14юз3871100 0.0 1018147
02:00+12юз4976100 0.0 1017161
05:00+13ююз4974100 0.0 1014190
08:00+15юз5117431 0.0 1013381
11:00+18зюз81082100 0.1 1011981
14:00+14з81385100 0.2 1012827
17:00+12з81390100 0.0 1012636
20:00+11ссз61089100 0.1 1014752
21 мая, сб
сб2123:00+10ссв4885100 0.0 1016690
02:00+9св498988 0.0 1014603
05:00+8всв3892100 0.0 1014496
08:00+10в577789 0.0 1013601
11:00+14вюв566399 0.0 10121219
14:00+14ююв3468100 0.1 1012985
17:00+11вюв2291100 0.9 1012110
20:00+11всв2593100 2.4 1012165